This is the latest recevied weather packets stored in our database for station/object WE0DX-1. If no packets are shown the sender has not sent any weather packets the latest 10 day(s).
| Time | Temp. | Humidity | Pressure | Rain* | Wind** | Luminosity | Snow |
|---|---|---|---|---|---|---|---|
| 1777748753 | 16.11° C | 32% | 1020.2 hPa | 0 mm | - | 687 W/m² | - |
| 1777748450 | 16.11° C | 33% | 1020 hPa | 0 mm | - | 680 W/m² | - |
| 1777748144 | 16.11° C | 35% | 1020.3 hPa | 0 mm | - | 684 W/m² | - |
| 1777747842 | 16.11° C | 31% | 1020.4 hPa | 0 mm | - | 743 W/m² | - |
| 1777747538 | 15.56° C | 31% | 1020.4 hPa | 0 mm | - | 747 W/m² | - |
| 1777746626 | 15.56° C | 31% | 1020.6 hPa | 0 mm | - | 714 W/m² | - |
| 1777746321 | 15.56° C | 32% | 1020.5 hPa | 0 mm | - | 724 W/m² | - |
| 1777746018 | 15.56° C | 34% | 1020.6 hPa | 0 mm | - | 728 W/m² | - |
| 1777745716 | 15.56° C | 32% | 1020.8 hPa | 0 mm | - | 727 W/m² | - |
| 1777745414 | 16.11° C | 33% | 1020.8 hPa | 0 mm | - | 731 W/m² | - |
| 1777745111 | 15.56° C | 33% | 1020.8 hPa | 0 mm | - | 738 W/m² | - |
| 1777744808 | 15° C | 32% | 1021.1 hPa | 0 mm | - | 735 W/m² | - |
| 1777744198 | 15.56° C | 33% | 1021.1 hPa | 0 mm | - | 725 W/m² | - |
| 1777743895 | 15° C | 35% | 1021.1 hPa | 0 mm | - | 699 W/m² | - |
| 1777742380 | 15.56° C | 32% | 1021.2 hPa | 0 mm | - | 818 W/m² | - |
| 1777741773 | 15° C | 33% | 1021.3 hPa | 0 mm | - | 804 W/m² | - |
| 1777739947 | 14.44° C | 34% | 1021.1 hPa | 0 mm | - | 885 W/m² | - |
| 1777739341 | 13.89° C | 33% | 1021.3 hPa | 0 mm | - | 851 W/m² | - |
| 1777738129 | 13.89° C | 35% | 1021.2 hPa | 0 mm | - | 789 W/m² | - |
| 1777737827 | 13.89° C | 37% | 1021.3 hPa | 0 mm | - | 772 W/m² | - |
| 1777736919 | 13.89° C | 35% | 1021.3 hPa | 0 mm | - | 774 W/m² | - |
| 1777736311 | 13.33° C | 33% | 1021.3 hPa | 0 mm | - | 712 W/m² | - |
| 1777736007 | 13.89° C | 37% | 1021.2 hPa | 0 mm | - | 678 W/m² | - |
| 1777735705 | 13.89° C | 38% | 1021.3 hPa | 0 mm | - | 633 W/m² | - |
| 1777735402 | 13.33° C | 40% | 1021.3 hPa | 0 mm | - | 617 W/m² | - |
* Rain latest hour (hover to see other rain measurements)
** Current wind speed in m/s (hover to see current wind gust speed)